[Date Prev][Date Next][Thread Prev][Thread Next] - [Date Index][Thread Index][Author Index]
2 Line ISS Keps 5-19
- Subject: [sarex] 2 Line ISS Keps 5-19
- From: "Dave Larsen PhD" <doc@xxxxxxxxxxx>
- Date: Thu, 19 May 2005 03:37:40 -0700
ISS
1 25544U 98067A 05139.32963160 .00018563 00000-0 14372-3 0 5054
2 25544 051.6451 048.7203 0005781 137.4017 323.7203 15.71905780371141
----
Via the sarex mailing list at AMSAT.ORG courtesy of AMSAT-NA.
To unsubscribe, send "unsubscribe sarex" to Majordomo@amsat.org
AMSAT Home